OPS 4682 DEB, 26731

Orbit data source: Space-Track

OPS 4682 DEB, 26731 is space debris in LEO originally from a launch on Sat, 03 Apr 1965 UTC launched from the Air Force Western Test Range (AFWTR). Debris objects in space refer to the collection of defunct objects orbiting the Earth. Examples of debris include non-operational satellites, rocket bodies, and fragments generated from explosions, collisions, or faulty payload assembly.

Loading next visibility...
Identifier
26731, 1965-027BE
Orbit
LEO
Country
Flag of USUS
Related business
Manufacturer
Unknown
Mission
Spacecraft
Bus & Motor
Unknown
Mass
Unknown
Launch date (UTC)
1965-04-03 (61 years ago)
Launch vehicle
Unknown
Launch site
Air Force Western Test Range (AFWTR)
Object type
Payload
Rocket body
Debris
Shape & HBR
Unknown shape, 0.1 m
Radar Cross Section
Medium (>0.1 m² and <1 m²)

Expand to show TLE details & history
Last TLE update: 3 days ago

TLE from 3 days ago
0 OPS 4682 DEB
1 26731U 65027BE  26148.10186545  .00000421  00000-0  14703-2 0  9994
2 26731  90.2582  13.9715 0020497 276.2523 234.8499 12.95319506559247
Epoch: 2026-05-28T02:26Z
TLE epoch observation values (Epoch: 2026-05-28T02:26:41.174Z)
Latitude
29.13184°
Longitude
-88.2083°
Altitude
1,293.157 km
Speed
7.208 km/s
True Right ascension
12h 56m 27s
True Declination
28° 59' 46"
Sunlit
Object was in daylight at epoch
Visualization orbit readout
Latitude
Unknown
Longitude
Unknown
Altitude
Unknown
Speed
Unknown
Apparent Right ascension
Unknown
Apparent Declination
Unknown
Sunlit
N/A
Visualization observer readout
Local Sidereal Time
09:14:25
Azimuth
Unknown
Elevation
Unknown
Doppler factor
Unknown
Orbital elements
Apogee altitude
1,293.306 km
Perigee altitude
1,261.922 km
Semi-major axis
7,655.751 km
Eccentricity
0.00205
Inclination
90.2582°
RAAN
13.9715°
Arg. of periapsis
276.2523°
True anomaly
234.65814°
Mean anomaly
234.8499°
Eccentric anomaly
234.75399°
Mean motion
3.24012 °/min
Orbital period
111.11 mins
BSTAR
0.0014703
Loading maneuver chart data...
Computing Atmospheric mass density...
Loading historical data...
Loading historical data...
Loading historical data...
Loading historical data...
Loading historical data...
Loading historical data...
Loading historical data...

Documentation

Showing up to 5 results
|